timestamp,wind_dir_avg,wind_spd_avg,wind_spd_max_dir,wind_spd_gust,battery_voltage,lat,long
2024-03-20 00:04:00+00:00,218.0,7.47,236.0,10.45,12.25,47.59359,-54.27349
2024-03-20 00:14:00+00:00,209.0,6.32,211.0,7.21,12.17,47.59359,-54.27349
2024-03-20 00:24:00+00:00,215.0,5.4,215.0,5.86,12.17,47.59359,-54.27349
2024-03-20 00:34:00+00:00,209.0,6.2,208.0,6.6,12.17,47.59359,-54.27349
2024-03-20 00:44:00+00:00,210.0,5.34,211.0,5.99,12.17,47.59359,-54.27349
2024-03-20 00:54:00+00:00,206.0,3.77,217.0,5.44,12.17,47.59359,-54.27349
2024-03-20 01:04:00+00:00,219.0,5.55,242.0,7.27,12.17,47.59359,-54.27349
2024-03-20 01:14:00+00:00,214.0,6.27,214.0,6.83,12.17,47.59359,-54.27349
2024-03-20 01:24:00+00:00,236.0,4.11,236.0,4.12,12.17,47.59359,-54.27349
2024-03-20 01:34:00+00:00,248.0,9.24,245.0,9.45,12.17,47.59359,-54.27349
2024-03-20 01:44:00+00:00,315.0,0.01,254.0,0.0,12.17,47.59359,-54.27349
2024-03-20 01:54:00+00:00,261.0,10.05,255.0,11.27,12.17,47.59359,-54.27349
2024-03-20 02:04:00+00:00,259.0,9.43,259.0,11.02,12.17,47.59359,-54.27349
2024-03-20 02:14:00+00:00,248.0,10.14,252.0,11.44,12.09,47.59359,-54.27349
2024-03-20 02:24:00+00:00,244.0,10.22,244.0,10.84,12.09,47.59359,-54.27349
2024-03-20 02:34:00+00:00,247.0,10.63,246.0,11.14,12.09,47.59359,-54.27349
2024-03-20 02:44:00+00:00,249.0,10.76,249.0,11.59,12.09,47.59359,-54.27349
2024-03-20 02:54:00+00:00,250.0,9.29,251.0,11.37,12.09,47.59359,-54.27349
2024-03-20 03:04:00+00:00,265.0,9.88,262.0,11.04,12.09,47.59359,-54.27349
2024-03-20 03:14:00+00:00,262.0,8.89,264.0,10.8,12.09,47.59359,-54.27349
2024-03-20 03:24:00+00:00,255.0,9.15,259.0,11.2,12.09,47.59359,-54.27349
2024-03-20 03:34:00+00:00,251.0,9.43,252.0,11.27,12.09,47.59359,-54.27349
2024-03-20 03:44:00+00:00,247.0,9.52,238.0,10.78,12.09,47.59359,-54.27349
2024-03-20 03:54:00+00:00,242.0,9.4,239.0,10.96,12.09,47.59359,-54.27349
2024-03-20 04:04:00+00:00,245.0,8.46,243.0,10.03,12.09,47.59359,-54.27349
2024-03-20 04:14:01+00:00,253.0,9.89,255.0,11.17,12.09,47.59359,-54.27349
2024-03-20 04:24:01+00:00,254.0,9.33,252.0,11.18,12.09,47.59359,-54.27349
2024-03-20 04:34:01+00:00,256.0,7.73,258.0,11.68,12.09,47.59359,-54.27349
2024-03-20 04:44:01+00:00,254.0,9.69,253.0,10.31,12.09,47.59359,-54.27349
2024-03-20 04:54:01+00:00,252.0,10.06,252.0,11.04,12.09,47.59359,-54.27349
2024-03-20 05:04:01+00:00,247.0,8.05,248.0,9.28,12.09,47.59359,-54.27349
2024-03-20 05:14:00+00:00,252.0,9.39,251.0,10.13,12.01,47.59359,-54.27349
2024-03-20 05:24:00+00:00,250.0,9.07,259.0,11.85,12.01,47.59359,-54.27349
2024-03-20 05:34:00+00:00,240.0,9.59,240.0,10.94,12.01,47.59359,-54.27349
2024-03-20 05:44:00+00:00,243.0,9.87,241.0,11.01,12.01,47.59359,-54.27349
2024-03-20 05:54:00+00:00,247.0,9.85,250.0,10.94,12.01,47.59359,-54.27349
2024-03-20 06:04:00+00:00,244.0,10.1,249.0,10.73,12.01,47.59359,-54.27349
2024-03-20 06:14:00+00:00,251.0,9.88,258.0,10.68,12.01,47.59359,-54.27349
2024-03-20 06:24:00+00:00,242.0,8.75,241.0,9.85,12.01,47.59359,-54.27349
2024-03-20 06:34:00+00:00,248.0,10.27,252.0,11.08,12.01,47.59359,-54.27349
2024-03-20 06:44:00+00:00,250.0,9.57,251.0,10.13,12.01,47.59359,-54.27349
2024-03-20 06:54:00+00:00,241.0,9.8,239.0,11.17,12.01,47.59359,-54.27349
2024-03-20 07:04:00+00:00,239.0,10.15,243.0,11.1,12.01,47.59359,-54.27349
2024-03-20 07:14:00+00:00,237.0,10.22,240.0,11.57,11.93,47.59359,-54.27349
2024-03-20 07:24:00+00:00,248.0,9.39,251.0,11.4,11.93,47.59359,-54.27349
2024-03-20 07:34:00+00:00,257.0,9.13,262.0,10.73,11.93,47.59359,-54.27349
2024-03-20 07:44:00+00:00,256.0,7.86,250.0,9.61,11.93,47.59359,-54.27349
2024-03-20 07:54:00+00:00,268.0,9.34,266.0,11.02,11.93,47.59359,-54.27349
2024-03-20 08:04:00+00:00,260.0,9.49,261.0,11.09,11.93,47.59359,-54.27349
2024-03-20 08:14:01+00:00,255.0,9.1,253.0,11.37,11.93,47.59359,-54.27349
2024-03-20 08:24:01+00:00,271.0,9.31,271.0,10.26,11.93,47.59359,-54.27349
2024-03-20 08:34:01+00:00,259.0,8.75,262.0,10.35,11.93,47.59359,-54.27349
2024-03-20 08:44:01+00:00,242.0,9.84,247.0,11.28,11.93,47.59359,-54.27349
2024-03-20 08:54:01+00:00,246.0,9.44,245.0,10.93,11.93,47.59359,-54.27349
2024-03-20 09:04:01+00:00,263.0,8.92,265.0,10.98,11.93,47.59359,-54.27349
2024-03-20 09:14:00+00:00,259.0,9.07,265.0,11.03,11.93,47.59359,-54.27349
2024-03-20 09:24:00+00:00,256.0,9.02,254.0,11.08,11.93,47.59359,-54.27349
2024-03-20 09:34:00+00:00,260.0,8.77,259.0,10.8,11.93,47.59359,-54.27349
2024-03-20 09:44:00+00:00,253.0,9.95,251.0,11.38,11.93,47.59359,-54.27349
2024-03-20 09:54:00+00:00,251.0,9.27,253.0,11.1,11.93,47.59359,-54.27349
2024-03-20 10:04:00+00:00,252.0,9.79,253.0,11.06,11.93,47.59359,-54.27349
2024-03-20 10:14:01+00:00,257.0,9.64,259.0,11.05,11.93,47.59359,-54.27349
2024-03-20 10:24:01+00:00,264.0,9.9,260.0,10.96,11.93,47.59359,-54.27349
2024-03-20 10:34:01+00:00,266.0,8.66,265.0,10.01,11.93,47.59359,-54.27349
2024-03-20 10:44:01+00:00,271.0,9.06,276.0,10.85,11.93,47.59359,-54.27349
2024-03-20 10:54:01+00:00,258.0,9.69,259.0,10.52,11.93,47.59359,-54.27349
2024-03-20 11:04:01+00:00,265.0,8.86,269.0,11.53,11.93,47.59359,-54.27349
2024-03-20 11:14:00+00:00,265.0,9.71,261.0,10.63,14.08,47.59359,-54.27349
2024-03-20 11:24:00+00:00,259.0,9.28,252.0,10.79,14.08,47.59359,-54.27349
2024-03-20 11:34:00+00:00,260.0,9.39,261.0,10.95,14.08,47.59359,-54.27349
2024-03-20 11:44:00+00:00,265.0,9.27,265.0,10.94,14.08,47.59359,-54.27349
2024-03-20 11:54:00+00:00,265.0,8.6,262.0,10.36,14.08,47.59359,-54.27349
2024-03-20 12:04:00+00:00,269.0,9.24,269.0,9.42,14.08,47.59359,-54.27349
2024-03-20 12:14:00+00:00,265.0,10.02,264.0,10.95,13.76,47.59359,-54.27349
2024-03-20 12:24:00+00:00,265.0,9.17,260.0,10.81,13.76,47.59359,-54.27349
2024-03-20 12:34:00+00:00,272.0,8.49,272.0,10.81,13.76,47.59359,-54.27349
2024-03-20 12:44:00+00:00,258.0,9.89,257.0,11.0,13.76,47.59359,-54.27349
2024-03-20 12:54:00+00:00,264.0,9.28,263.0,10.74,13.76,47.59359,-54.27349
2024-03-20 13:04:00+00:00,264.0,9.34,257.0,10.92,13.76,47.59359,-54.27349
2024-03-20 13:14:00+00:00,258.0,9.81,255.0,11.15,13.6,47.59359,-54.27349
2024-03-20 13:24:00+00:00,244.0,10.56,247.0,11.57,13.6,47.59359,-54.27349
2024-03-20 13:34:00+00:00,245.0,10.62,248.0,11.67,13.6,47.59359,-54.27349
2024-03-20 13:44:00+00:00,241.0,8.63,249.0,11.44,13.6,47.59359,-54.27349
2024-03-20 13:54:00+00:00,245.0,9.35,248.0,11.38,13.6,47.59359,-54.27349
2024-03-20 14:04:00+00:00,251.0,8.67,247.0,10.21,13.6,47.59359,-54.27349
2024-03-20 14:14:00+00:00,244.0,8.63,247.0,11.4,13.53,47.59359,-54.27349
2024-03-20 14:24:00+00:00,252.0,10.17,253.0,11.37,13.53,47.59359,-54.27349
2024-03-20 14:34:00+00:00,242.0,10.95,241.0,11.96,13.53,47.59359,-54.27349
2024-03-20 14:44:00+00:00,253.0,10.54,254.0,11.14,13.53,47.59359,-54.27349
2024-03-20 14:54:00+00:00,240.0,10.55,248.0,13.66,13.53,47.59359,-54.27349
2024-03-20 15:04:00+00:00,236.0,8.48,246.0,9.92,13.53,47.59359,-54.27349
2024-03-20 15:14:00+00:00,243.0,10.49,245.0,11.65,13.6,47.59359,-54.27349
2024-03-20 15:24:00+00:00,249.0,9.88,253.0,10.8,13.6,47.59359,-54.27349
2024-03-20 15:34:00+00:00,249.0,9.16,250.0,9.17,13.6,47.59359,-54.27349
2024-03-20 15:44:00+00:00,279.0,9.83,281.0,10.87,13.6,47.59359,-54.27349
2024-03-20 15:54:00+00:00,253.0,9.25,255.0,11.28,13.6,47.59359,-54.27349
2024-03-20 16:04:00+00:00,259.0,10.11,254.0,11.28,13.6,47.59359,-54.27349
2024-03-20 16:14:00+00:00,249.0,9.98,252.0,11.44,13.53,47.59359,-54.27349
2024-03-20 16:24:00+00:00,235.0,9.99,238.0,12.64,13.53,47.59359,-54.27349
2024-03-20 16:34:00+00:00,246.0,10.93,244.0,11.62,13.53,47.59359,-54.27349
2024-03-20 16:44:00+00:00,247.0,10.6,243.0,12.75,13.53,47.59359,-54.27349
2024-03-20 16:54:00+00:00,249.0,9.34,254.0,11.84,13.53,47.59359,-54.27349
2024-03-20 17:04:00+00:00,244.0,8.84,250.0,11.5,13.53,47.59359,-54.27349
2024-03-20 17:14:00+00:00,241.0,8.67,239.0,10.52,13.53,47.59359,-54.27349
2024-03-20 17:24:00+00:00,241.0,10.92,241.0,12.14,13.53,47.59359,-54.27349
2024-03-20 17:34:00+00:00,235.0,10.28,235.0,12.74,13.53,47.59359,-54.27349
2024-03-20 17:44:00+00:00,251.0,10.09,251.0,11.09,13.53,47.59359,-54.27349
2024-03-20 17:54:00+00:00,248.0,10.66,250.0,11.52,13.53,47.59359,-54.27349
2024-03-20 18:04:00+00:00,247.0,10.37,250.0,11.32,13.53,47.59359,-54.27349
2024-03-20 18:14:01+00:00,245.0,10.34,241.0,11.47,13.53,47.59359,-54.27349
2024-03-20 18:24:01+00:00,249.0,10.06,251.0,10.85,13.53,47.59359,-54.27349
2024-03-20 18:34:01+00:00,249.0,9.49,251.0,10.13,13.53,47.59359,-54.27349
2024-03-20 18:44:01+00:00,240.0,9.69,243.0,11.48,13.53,47.59359,-54.27349
2024-03-20 18:54:01+00:00,225.0,8.57,238.0,11.02,13.53,47.59359,-54.27349
2024-03-20 19:04:01+00:00,219.0,9.31,232.0,11.86,13.53,47.59359,-54.27349
2024-03-20 19:14:00+00:00,223.0,9.37,231.0,11.65,13.6,47.59359,-54.27349
2024-03-20 19:24:00+00:00,225.0,10.09,231.0,12.15,13.6,47.59359,-54.27349
2024-03-20 19:34:00+00:00,221.0,9.07,227.0,11.26,13.6,47.59359,-54.27349
2024-03-20 19:44:00+00:00,225.0,11.14,226.0,11.99,13.6,47.59359,-54.27349
2024-03-20 19:54:00+00:00,225.0,11.6,228.0,12.67,13.6,47.59359,-54.27349
2024-03-20 20:04:00+00:00,228.0,10.63,231.0,11.9,13.6,47.59359,-54.27349
2024-03-20 20:14:00+00:00,223.0,10.17,230.0,11.85,13.53,47.59359,-54.27349
2024-03-20 20:24:00+00:00,214.0,8.04,229.0,10.75,13.53,47.59359,-54.27349
2024-03-20 20:34:00+00:00,226.0,9.7,228.0,11.28,13.53,47.59359,-54.27349
2024-03-20 20:44:00+00:00,227.0,9.03,232.0,11.4,13.53,47.59359,-54.27349
2024-03-20 20:54:00+00:00,235.0,9.33,244.0,11.32,13.53,47.59359,-54.27349
2024-03-20 21:04:00+00:00,239.0,8.92,238.0,10.85,13.53,47.59359,-54.27349
2024-03-20 21:14:00+00:00,242.0,9.26,242.0,11.0,13.05,47.59359,-54.27349
2024-03-20 21:24:00+00:00,241.0,9.17,242.0,10.98,13.05,47.59359,-54.27349
2024-03-20 21:34:00+00:00,240.0,9.45,239.0,10.97,13.05,47.59359,-54.27349
2024-03-20 21:44:00+00:00,242.0,9.87,239.0,11.02,13.05,47.59359,-54.27349
2024-03-20 21:54:00+00:00,221.0,7.44,236.0,10.21,13.05,47.59359,-54.27349
2024-03-20 22:04:00+00:00,223.0,8.82,229.0,11.08,13.05,47.59359,-54.27349
2024-03-20 22:14:00+00:00,212.0,7.37,229.0,9.1,12.49,47.59359,-54.27349
2024-03-20 22:24:00+00:00,218.0,7.72,235.0,10.42,12.49,47.59359,-54.27349
2024-03-20 22:34:00+00:00,214.0,7.06,226.0,8.46,12.49,47.59359,-54.27349
2024-03-20 22:44:00+00:00,214.0,6.66,214.0,7.28,12.49,47.59359,-54.27349
2024-03-20 22:54:00+00:00,206.0,6.14,205.0,6.89,12.49,47.59359,-54.27349
2024-03-20 23:04:00+00:00,208.0,5.53,211.0,6.24,12.49,47.59359,-54.27349
2024-03-20 23:14:00+00:00,206.0,5.87,210.0,6.36,12.25,47.59359,-54.27349
2024-03-20 23:24:00+00:00,197.0,5.08,214.0,6.4,12.25,47.59359,-54.27349
2024-03-20 23:34:00+00:00,190.0,4.73,214.0,6.65,12.25,47.59359,-54.27349
2024-03-20 23:44:00+00:00,194.0,4.7,215.0,5.99,12.25,47.59359,-54.27349
2024-03-20 23:54:00+00:00,213.0,5.46,215.0,6.17,12.25,47.59359,-54.27349
